SCP
0 0 0 0 0 0 0 0 0 0 0 0 0 0 0 0 0 0 0 -0 -0 0 0 -0 -0 -0 0 0 0 0 0 0 0 0 0 0 0 0 0 0 0 0 0
0 0 0 0 0 0 0 0 0 0 -0 0 -0 0 0 0 0 0 0 0 0 0 -0 0 -0 -0 0 0 0 0 0 0 0 0 0 0 0 0 0 0 0 0 0
0 0 0 0 0 0 0 0 0 0 -0 -0 -0 0 0 0 0 0 0 -0 -0 0 -0 -0 -0 0 0 0 0 0 0 0 0 0 0 0 0 0 0 0 0 0 0
0 0 0 -0 0 0 0 0 -0 -0 -0 0 0 -0 0 0 0 0 -0 -0 0 0 -0 -0 -0 -0 0 0 0 0 0 0 0 0 0 0 0 0 0 0 0 0 0
0 -0 -0 0 0 0 -0 -0 0 -0 -0 0 -0 -0 -0 -0 0 -0 0 0 -0 -0 0 0 -0 0 -0 0 0 0 0 0 0 0 0 0 0 0 0 0 0 0 0
-0 -0 0 0 -0 -0 -0 0 0 0 0 -0 -0 0 0 -0 0 0 0 0 0 0 0 -0 -0 -0 0 0 0 0 0 0 0 0 0 0 0 0 0 0 0 0 0
-0 -0 -0 -0 -0 -0 -0 0 0 0 0 -0 0 0 -0 -0 0 0 0 0 0 0 0 0 0 0 0 0 0 0 0 0 0 0 0 0 0 0 0 0 0 0 0
-0 -0 -0 -0 -0 0 0 -0 0 -0 -0 0 0 0 -0 0 0 0 0 0 0 0 0 0 0 0 0 0 0 0 0 0 0 0 0 0 0 0 0 0 0 0 0
-0 -0 -0 0 0 0 0 0 0 0 0 0 0 -0 -0 0 0 0 0 0 0 0 0 0 0 0 0 0 0 0 0 0 0 0 0 0 0 0 0 0 0 -0 0
-0 -0 -0 0 -0 -0 0 0 -0 -0 0 0 0 0 -0 0 0 0 0 0 0 0 0 0 0 0 0 0 0 0 0 0 0 0 0 0 0 0 0 0 0 0 -0
-0 -0 -0 0 0 0 0 0 -0 -0 0 0 0 0 0 0 0 -0 0 0 0 0 0 0 0 0 0 0 0 0 0 0 0 0 0 0 0 0 0 0 0 0 0
-0 -0 -0 -0 0 0 0 0 0 0 0 0 0 0 0 0 0 0 0 0 0 0 0 0 -0 0 -0 0 0 0 -0 0 0 0 0 0 0 0 0 0 0 0 0
-0 -0 -0 -0 0 0 0 0 0 0 0 0 0 0 0 0 0 0 0 0 0 0 0 -0 -0 0 0 0 -0 0 0 0 0 0 0 0 -0 0 0 0 0 0 0
-0 -0 -0 -0 0 0 0 0 0 0 0 0 0 0 0 0 0 0 -0 0 -0 0 0 -0 -0 0 0 0 0 -0 0 0 0 0 -0 -0 0 0 -0 -0 -0 0 -0
-0 -0 -0 0 0 0 0 0 0 0 0 0 0 0 0 0 0 0 0 0 0 0 0 0 0 0 0 0 0 0 0 0 -0 -0 -0 -0 0 0 0 -0 -0 -0 -0
-0 -0 0 0 0 0 0 0 0 0 0 0 0 0 0 0 0 0 0 0 0 0 0 0 0 0 0 -0 -0 -0 -0 -0 -0 -0 -0 -0 -0 -0 -0 -0 -0 -0 -0
-0 -0 0 0 0 0 0 0 0 0 -0 0 0 0 0 0 0 0 0 0 0 0 0 0 0 -0 -0 -0 -0 -0 -0 -0 -0 -0 -0 -0 -0 -0 -0 0 0 0 0
-0 -0 -0 0 0 0 0 0 0 0 0 0 -0 0 0 0 0 0 0 0 0 -0 -0 0 0 -0 -0 -0 -0 -0 -0 -0 -0 0 0 0 0 0 0 -0 0 0 0
0 0 0 0 0 0 0 0 0 0 0 0 -0 -0 -0 -0 -0 0 -0 0 0 0 -0 -0 -0 -0 0 0 -0 -0 0 0 0 0 0 -0 -0 -0 -0 -0 0 -0 0
0 -0 0 0 0 0 0 0 0 0 0 0 0 -0 -0 -0 0 -0 -0 0 -0 -0 -0 -0 -0 0 0 0 0 0 0 0 0 -0 -0 -0 -0 -0 -0 -0 -0 0 0
0 0 0 0 0 0 0 0 0 0 0 0 0 0 -0 -0 -0 -0 -0 -0 -0 -0 -0 -0 0 0 0 0 0 -0 -0 -0 -0 -0 -0 0 0 0 0 0 0 0 0
-0 0 0 0 0 0 0 0 0 0 0 0 0 0 0 0 0 -0 -0 -0 -0 -0 -0 -0 -0 0 0 0 0 -0 -0 -0 0 0 0 0 0 0 0 0 0 0 0
0 0 0 0 0 0 0 0 0 0 0 0 0 0 0 0 0 0 0 0 0 0 -0 0 -0 0 0 0 0 0 0 0 0 0 0 0 0 0 0 0 0 0 0
0 0 0 0 0 0 0 0 0 0 0 0 0 0 0 0 0 0 0 0 0 0 0 0 0 0 0 0 0 0 0 0 0 0 0 0 0 0 0 0 0 0 0
0 0 0 0 0 0 0 0 0 0 0 0 0 0 0 0 0 0 0 0 0 0 0 0 0 0 0 0 0 0 0 0 0 0 0 0 0 0 0 0 0 0 0
0 0 0 0 0 0 0 0 0 0 0 0 0 0 0 0 0 0 0 0 0 0 0 0 0 0 0 0 0 0 0 0 0 0 0 0 0 0 0 0 0 0 0
Wind_Speed_500mb
38 29 28 22 17 13 16 19 16 16 15 15 16 8 2 8 11 15 15 13 11 8 13 18 24 27 20 23 28 29 32 33 32 39 26 32 34 43 64 69 72 67 77
32 31 27 20 16 15 18 17 16 16 9 17 12 3 11 11 16 18 19 17 11 13 19 21 22 22 21 24 29 31 33 26 34 42 42 55 37 75 85 79 81 93 83
36 27 20 17 11 11 19 17 15 19 25 13 7 8 9 12 12 12 12 11 17 18 17 20 20 20 19 20 18 34 38 30 45 47 55 60 76 78 89 83 81 72 72
33 23 16 14 9 4 25 20 17 30 18 9 9 8 8 11 9 6 6 9 9 11 18 21 22 18 16 18 23 35 38 47 48 55 72 70 79 90 93 96 84 75 75
34 22 14 19 10 20 25 20 26 26 12 13 10 3 8 8 8 7 7 7 10 12 19 24 18 15 13 14 22 38 47 54 58 88 82 91 91 96 100 88 87 79 63
35 18 18 22 17 21 24 23 21 18 18 15 9 2 8 8 10 8 9 9 11 19 23 21 25 24 22 15 22 46 48 67 85 98 88 87 92 95 91 86 84 74 57
31 20 25 28 23 22 21 21 23 19 19 15 9 3 7 4 8 10 8 10 13 17 21 26 31 30 13 20 38 55 61 84 84 100 96 88 93 77 82 71 70 72 66
28 25 29 25 19 23 23 22 23 21 21 18 12 6 4 4 2 7 10 10 17 22 23 26 32 21 28 47 59 68 72 86 77 78 72 77 74 70 66 64 65 61 60
31 28 26 28 28 23 23 23 25 28 26 22 14 10 9 7 3 4 9 17 22 27 27 32 25 29 39 56 64 76 73 74 64 67 66 66 59 57 60 59 59 58 58
35 27 24 31 22 25 22 19 22 26 25 22 17 12 9 7 7 8 11 13 18 28 32 31 28 37 49 61 58 71 63 52 51 59 57 55 52 51 50 47 49 52 53
34 31 27 28 18 17 19 17 21 23 26 24 21 13 10 11 10 12 12 10 11 30 39 38 35 35 46 49 53 57 59 53 55 53 53 53 50 47 43 35 32 35 41
39 34 28 32 22 21 18 22 19 17 18 23 23 20 19 13 16 15 15 12 12 31 44 45 42 38 45 44 46 51 61 51 55 57 57 56 51 46 38 32 26 19 20
44 37 37 29 19 13 20 25 18 14 17 22 26 22 23 17 20 20 20 18 20 29 38 44 45 39 42 51 43 57 60 60 60 56 53 50 45 40 30 26 23 20 14
48 42 41 31 26 16 15 18 16 15 16 20 24 25 25 23 27 27 23 24 32 34 40 41 43 45 40 45 51 50 58 58 59 56 48 43 44 45 39 33 28 24 21
49 45 43 36 33 19 18 24 18 11 8 12 20 23 23 28 30 29 25 36 36 39 44 44 43 47 51 50 51 57 53 56 55 54 55 49 44 41 45 42 37 34 37
56 50 45 40 36 21 22 28 23 17 10 9 8 15 17 21 31 29 30 33 38 43 43 42 41 42 51 54 59 63 57 52 50 54 56 56 48 45 48 51 48 46 45
56 53 48 43 37 30 27 32 26 23 21 16 17 18 15 22 32 31 32 33 40 43 40 37 36 38 40 50 61 66 57 51 47 49 51 50 47 46 50 57 56 53 51
49 50 49 46 40 35 32 32 29 24 25 23 25 22 21 18 26 35 36 41 46 45 38 34 36 37 44 50 56 57 52 50 49 46 46 46 47 49 52 55 56 55 55
49 55 54 48 44 36 34 34 36 34 31 28 28 30 31 29 28 35 41 49 54 53 48 43 38 39 43 50 53 54 51 48 43 41 42 45 49 51 52 53 53 53 55
53 53 55 53 49 44 39 46 43 42 43 42 39 37 39 44 46 46 48 51 55 55 55 52 50 48 50 54 57 56 54 51 48 48 51 47 52 57 62 63 62 61 59
62 60 58 56 56 51 53 54 54 51 53 55 50 46 46 54 55 55 51 53 55 58 61 60 56 59 60 61 62 64 66 63 59 58 57 59 63 61 62 66 67 67 66
59 70 69 67 64 63 58 58 62 63 63 59 57 56 55 56 58 62 61 60 59 60 62 64 66 64 65 71 72 73 72 70 67 68 68 69 66 72 75 76 76 77 78
33 50 65 78 75 68 66 60 66 67 69 71 66 61 65 69 67 64 61 61 65 66 65 67 71 73 74 77 77 76 79 83 80 74 72 73 75 78 80 83 84 86 89
13 20 27 52 70 79 74 70 69 69 71 74 75 76 70 69 72 67 65 62 60 59 62 67 73 76 78 81 88 88 90 87 80 79 81 84 81 81 83 83 83 82 82
10 3 6 15 17 39 72 81 80 78 76 77 79 83 79 75 74 73 69 69 67 65 64 65 65 69 73 78 83 85 87 95 97 91 84 77 75 77 85 88 85 86 85
18 16 19 17 16 15 5 30 66 85 87 88 84 84 90 85 82 80 76 73 73 71 67 68 71 71 71 69 72 77 81 85 85 82 82 84 84 83 84 82 82 85 85
Wind_Direction_500mb
163 160 160 150 175 189 200 183 175 179 165 167 158 175 244 280 293 306 290 255 242 220 210 203 209 208 211 217 220 207 204 211 201 171 168 178 189 191 178 167 160 165 170
145 127 139 145 155 148 166 170 186 185 171 147 149 195 273 270 293 294 264 250 230 211 194 205 201 204 222 221 204 197 203 209 194 154 155 169 171 169 166 168 174 164 147
148 148 151 151 152 158 176 167 193 183 163 174 182 215 267 297 317 302 239 205 198 200 193 195 199 206 218 211 213 187 204 190 180 153 149 154 161 163 153 160 148 138 138
146 149 150 148 176 162 167 170 163 163 169 179 179 237 309 325 331 50 111 143 170 186 201 204 199 191 189 203 195 180 176 164 158 149 146 148 152 152 144 140 141 141 140
160 150 160 146 176 155 164 175 156 165 173 170 213 231 337 341 44 47 126 132 148 168 168 179 187 175 139 151 176 173 166 151 150 146 131 134 138 142 145 149 144 149 151
170 160 170 150 150 157 162 137 158 164 173 194 197 14 8 46 84 59 82 107 110 142 152 154 133 128 133 145 172 167 163 150 151 148 141 138 143 146 147 152 152 151 145
171 174 162 155 162 163 167 172 179 178 185 183 199 288 3 30 61 81 101 116 120 137 146 140 140 152 166 148 166 160 155 148 151 150 149 151 153 153 156 151 153 151 154
169 166 160 157 160 161 166 187 189 187 195 191 209 238 326 348 84 68 79 113 132 130 144 151 155 143 141 158 154 153 151 156 156 160 158 157 153 159 158 156 158 156 151
176 161 161 168 158 165 182 188 190 189 200 209 221 244 283 271 222 97 109 117 127 141 152 152 144 124 141 145 147 154 149 153 158 159 158 158 162 166 163 159 159 160 158
176 163 165 170 153 175 188 194 197 203 213 219 225 240 250 215 175 149 135 133 127 142 150 147 141 135 141 153 147 158 156 158 163 161 160 160 153 157 165 170 166 170 165
183 163 168 167 168 168 179 186 187 193 206 218 222 218 203 185 180 155 136 145 135 142 151 146 144 143 148 152 148 157 156 153 163 157 150 153 160 162 165 173 178 178 174
183 177 175 173 179 181 183 174 173 184 202 200 199 200 183 178 170 160 151 150 132 143 149 145 143 146 151 155 162 155 158 159 155 156 156 158 160 161 164 162 159 154 190
186 183 183 183 168 179 186 170 174 194 192 185 186 190 180 175 170 161 158 151 141 152 143 144 140 148 151 164 163 168 167 166 167 169 165 168 168 164 163 173 187 198 220
187 186 190 180 173 170 179 174 171 162 167 177 185 187 183 176 172 167 161 155 148 146 144 146 147 151 157 162 170 169 174 173 177 179 174 171 173 180 184 193 197 210 215
190 191 189 181 177 179 178 176 174 158 159 139 170 175 179 174 171 171 163 158 157 150 143 145 152 160 164 171 174 182 182 187 191 189 187 182 185 196 203 206 212 220 233
194 193 192 189 187 191 180 181 189 199 175 163 134 146 164 173 174 166 155 158 164 165 159 151 151 160 174 178 182 182 184 189 193 200 200 204 210 215 214 218 223 227 235
200 200 198 198 195 194 191 191 196 212 220 199 176 155 160 175 176 171 163 164 172 174 178 176 173 170 171 177 179 182 185 184 190 195 200 206 213 217 218 223 229 232 238
206 212 210 210 212 210 205 201 205 220 206 190 191 185 182 170 188 187 179 179 183 190 195 195 193 193 189 185 185 189 192 195 198 203 211 216 219 221 224 228 232 238 246
211 214 218 219 219 221 219 217 218 222 224 219 200 199 202 199 193 199 204 204 198 199 201 204 201 198 198 198 194 192 193 198 205 216 227 232 232 232 234 236 241 247 255
217 220 222 222 220 218 219 223 222 224 229 230 228 223 208 206 208 207 210 212 215 213 211 211 209 208 204 199 201 206 212 217 224 233 235 241 241 241 245 247 251 254 260
225 225 225 225 224 222 220 224 227 229 233 234 237 237 234 229 223 225 226 224 222 222 221 218 216 215 213 213 213 216 222 226 230 232 235 241 243 244 244 248 252 256 261
230 230 228 229 230 227 226 224 229 231 233 236 238 241 240 241 240 239 238 236 235 232 229 229 229 227 225 223 224 226 229 232 234 236 239 242 246 247 250 255 258 259 259
209 228 234 232 234 237 235 234 233 236 238 239 240 241 241 239 241 242 245 246 244 243 241 237 236 235 233 231 229 230 235 237 238 241 243 246 248 250 254 257 259 260 261
146 182 213 234 239 241 241 243 239 239 242 243 244 244 244 246 247 250 250 249 247 245 245 244 243 243 241 240 239 238 238 240 242 246 247 250 252 253 254 256 258 261 263
325 344 221 206 222 245 249 250 249 247 243 245 247 249 250 250 251 252 256 253 252 251 249 248 248 248 247 245 245 244 245 243 243 244 245 249 252 255 257 259 260 262 263
311 305 295 270 250 246 279 263 258 256 253 248 247 249 250 252 253 253 254 256 256 256 258 258 257 256 258 259 256 252 248 247 247 245 245 248 252 255 257 258 259 260 261
Wind_Speed_850mb
38 29 28 22 17 13 16 19 16 16 15 15 16 8 2 8 11 15 15 13 11 8 13 18 24 27 20 23 28 29 32 33 32 39 26 32 34 43 64 69 72 67 77
32 31 27 20 16 15 18 17 16 16 9 17 12 3 11 11 16 18 19 17 11 13 19 21 22 22 21 24 29 31 33 26 34 42 42 55 37 75 85 79 81 93 83
36 27 20 17 11 11 19 17 15 19 25 13 7 8 9 12 12 12 12 11 17 18 17 20 20 20 19 20 18 34 38 30 45 47 55 60 76 78 89 83 81 72 72
33 23 16 14 9 4 25 20 17 30 18 9 9 8 8 11 9 6 6 9 9 11 18 21 22 18 16 18 23 35 38 47 48 55 72 70 79 90 93 96 84 75 75
34 22 14 19 10 20 25 20 26 26 12 13 10 3 8 8 8 7 7 7 10 12 19 24 18 15 13 14 22 38 47 54 58 88 82 91 91 96 100 88 87 79 63
35 18 18 22 17 21 24 23 21 18 18 15 9 2 8 8 10 8 9 9 11 19 23 21 25 24 22 15 22 46 48 67 85 98 88 87 92 95 91 86 84 74 57
31 20 25 28 23 22 21 21 23 19 19 15 9 3 7 4 8 10 8 10 13 17 21 26 31 30 13 20 38 55 61 84 84 100 96 88 93 77 82 71 70 72 66
28 25 29 25 19 23 23 22 23 21 21 18 12 6 4 4 2 7 10 10 17 22 23 26 32 21 28 47 59 68 72 86 77 78 72 77 74 70 66 64 65 61 60
31 28 26 28 28 23 23 23 25 28 26 22 14 10 9 7 3 4 9 17 22 27 27 32 25 29 39 56 64 76 73 74 64 67 66 66 59 57 60 59 59 58 58
35 27 24 31 22 25 22 19 22 26 25 22 17 12 9 7 7 8 11 13 18 28 32 31 28 37 49 61 58 71 63 52 51 59 57 55 52 51 50 47 49 52 53
34 31 27 28 18 17 19 17 21 23 26 24 21 13 10 11 10 12 12 10 11 30 39 38 35 35 46 49 53 57 59 53 55 53 53 53 50 47 43 35 32 35 41
39 34 28 32 22 21 18 22 19 17 18 23 23 20 19 13 16 15 15 12 12 31 44 45 42 38 45 44 46 51 61 51 55 57 57 56 51 46 38 32 26 19 20
44 37 37 29 19 13 20 25 18 14 17 22 26 22 23 17 20 20 20 18 20 29 38 44 45 39 42 51 43 57 60 60 60 56 53 50 45 40 30 26 23 20 14
48 42 41 31 26 16 15 18 16 15 16 20 24 25 25 23 27 27 23 24 32 34 40 41 43 45 40 45 51 50 58 58 59 56 48 43 44 45 39 33 28 24 21
49 45 43 36 33 19 18 24 18 11 8 12 20 23 23 28 30 29 25 36 36 39 44 44 43 47 51 50 51 57 53 56 55 54 55 49 44 41 45 42 37 34 37
56 50 45 40 36 21 22 28 23 17 10 9 8 15 17 21 31 29 30 33 38 43 43 42 41 42 51 54 59 63 57 52 50 54 56 56 48 45 48 51 48 46 45
56 53 48 43 37 30 27 32 26 23 21 16 17 18 15 22 32 31 32 33 40 43 40 37 36 38 40 50 61 66 57 51 47 49 51 50 47 46 50 57 56 53 51
49 50 49 46 40 35 32 32 29 24 25 23 25 22 21 18 26 35 36 41 46 45 38 34 36 37 44 50 56 57 52 50 49 46 46 46 47 49 52 55 56 55 55
49 55 54 48 44 36 34 34 36 34 31 28 28 30 31 29 28 35 41 49 54 53 48 43 38 39 43 50 53 54 51 48 43 41 42 45 49 51 52 53 53 53 55
53 53 55 53 49 44 39 46 43 42 43 42 39 37 39 44 46 46 48 51 55 55 55 52 50 48 50 54 57 56 54 51 48 48 51 47 52 57 62 63 62 61 59
62 60 58 56 56 51 53 54 54 51 53 55 50 46 46 54 55 55 51 53 55 58 61 60 56 59 60 61 62 64 66 63 59 58 57 59 63 61 62 66 67 67 66
59 70 69 67 64 63 58 58 62 63 63 59 57 56 55 56 58 62 61 60 59 60 62 64 66 64 65 71 72 73 72 70 67 68 68 69 66 72 75 76 76 77 78
33 50 65 78 75 68 66 60 66 67 69 71 66 61 65 69 67 64 61 61 65 66 65 67 71 73 74 77 77 76 79 83 80 74 72 73 75 78 80 83 84 86 89
13 20 27 52 70 79 74 70 69 69 71 74 75 76 70 69 72 67 65 62 60 59 62 67 73 76 78 81 88 88 90 87 80 79 81 84 81 81 83 83 83 82 82
10 3 6 15 17 39 72 81 80 78 76 77 79 83 79 75 74 73 69 69 67 65 64 65 65 69 73 78 83 85 87 95 97 91 84 77 75 77 85 88 85 86 85
18 16 19 17 16 15 5 30 66 85 87 88 84 84 90 85 82 80 76 73 73 71 67 68 71 71 71 69 72 77 81 85 85 82 82 84 84 83 84 82 82 85 85
Wind_Direction_850mb
163 160 160 150 175 189 200 183 175 179 165 167 158 175 244 280 293 306 290 255 242 220 210 203 209 208 211 217 220 207 204 211 201 171 168 178 189 191 178 167 160 165 170
145 127 139 145 155 148 166 170 186 185 171 147 149 195 273 270 293 294 264 250 230 211 194 205 201 204 222 221 204 197 203 209 194 154 155 169 171 169 166 168 174 164 147
148 148 151 151 152 158 176 167 193 183 163 174 182 215 267 297 317 302 239 205 198 200 193 195 199 206 218 211 213 187 204 190 180 153 149 154 161 163 153 160 148 138 138
146 149 150 148 176 162 167 170 163 163 169 179 179 237 309 325 331 50 111 143 170 186 201 204 199 191 189 203 195 180 176 164 158 149 146 148 152 152 144 140 141 141 140
160 150 160 146 176 155 164 175 156 165 173 170 213 231 337 341 44 47 126 132 148 168 168 179 187 175 139 151 176 173 166 151 150 146 131 134 138 142 145 149 144 149 151
170 160 170 150 150 157 162 137 158 164 173 194 197 14 8 46 84 59 82 107 110 142 152 154 133 128 133 145 172 167 163 150 151 148 141 138 143 146 147 152 152 151 145
171 174 162 155 162 163 167 172 179 178 185 183 199 288 3 30 61 81 101 116 120 137 146 140 140 152 166 148 166 160 155 148 151 150 149 151 153 153 156 151 153 151 154
169 166 160 157 160 161 166 187 189 187 195 191 209 238 326 348 84 68 79 113 132 130 144 151 155 143 141 158 154 153 151 156 156 160 158 157 153 159 158 156 158 156 151
176 161 161 168 158 165 182 188 190 189 200 209 221 244 283 271 222 97 109 117 127 141 152 152 144 124 141 145 147 154 149 153 158 159 158 158 162 166 163 159 159 160 158
176 163 165 170 153 175 188 194 197 203 213 219 225 240 250 215 175 149 135 133 127 142 150 147 141 135 141 153 147 158 156 158 163 161 160 160 153 157 165 170 166 170 165
183 163 168 167 168 168 179 186 187 193 206 218 222 218 203 185 180 155 136 145 135 142 151 146 144 143 148 152 148 157 156 153 163 157 150 153 160 162 165 173 178 178 174
183 177 175 173 179 181 183 174 173 184 202 200 199 200 183 178 170 160 151 150 132 143 149 145 143 146 151 155 162 155 158 159 155 156 156 158 160 161 164 162 159 154 190
186 183 183 183 168 179 186 170 174 194 192 185 186 190 180 175 170 161 158 151 141 152 143 144 140 148 151 164 163 168 167 166 167 169 165 168 168 164 163 173 187 198 220
187 186 190 180 173 170 179 174 171 162 167 177 185 187 183 176 172 167 161 155 148 146 144 146 147 151 157 162 170 169 174 173 177 179 174 171 173 180 184 193 197 210 215
190 191 189 181 177 179 178 176 174 158 159 139 170 175 179 174 171 171 163 158 157 150 143 145 152 160 164 171 174 182 182 187 191 189 187 182 185 196 203 206 212 220 233
194 193 192 189 187 191 180 181 189 199 175 163 134 146 164 173 174 166 155 158 164 165 159 151 151 160 174 178 182 182 184 189 193 200 200 204 210 215 214 218 223 227 235
200 200 198 198 195 194 191 191 196 212 220 199 176 155 160 175 176 171 163 164 172 174 178 176 173 170 171 177 179 182 185 184 190 195 200 206 213 217 218 223 229 232 238
206 212 210 210 212 210 205 201 205 220 206 190 191 185 182 170 188 187 179 179 183 190 195 195 193 193 189 185 185 189 192 195 198 203 211 216 219 221 224 228 232 238 246
211 214 218 219 219 221 219 217 218 222 224 219 200 199 202 199 193 199 204 204 198 199 201 204 201 198 198 198 194 192 193 198 205 216 227 232 232 232 234 236 241 247 255
217 220 222 222 220 218 219 223 222 224 229 230 228 223 208 206 208 207 210 212 215 213 211 211 209 208 204 199 201 206 212 217 224 233 235 241 241 241 245 247 251 254 260
225 225 225 225 224 222 220 224 227 229 233 234 237 237 234 229 223 225 226 224 222 222 221 218 216 215 213 213 213 216 222 226 230 232 235 241 243 244 244 248 252 256 261
230 230 228 229 230 227 226 224 229 231 233 236 238 241 240 241 240 239 238 236 235 232 229 229 229 227 225 223 224 226 229 232 234 236 239 242 246 247 250 255 258 259 259
209 228 234 232 234 237 235 234 233 236 238 239 240 241 241 239 241 242 245 246 244 243 241 237 236 235 233 231 229 230 235 237 238 241 243 246 248 250 254 257 259 260 261
146 182 213 234 239 241 241 243 239 239 242 243 244 244 244 246 247 250 250 249 247 245 245 244 243 243 241 240 239 238 238 240 242 246 247 250 252 253 254 256 258 261 263
325 344 221 206 222 245 249 250 249 247 243 245 247 249 250 250 251 252 256 253 252 251 249 248 248 248 247 245 245 244 245 243 243 244 245 249 252 255 257 259 260 262 263
311 305 295 270 250 246 279 263 258 256 253 248 247 249 250 252 253 253 254 256 256 256 258 258 257 256 258 259 256 252 248 247 247 245 245 248 252 255 257 258 259 260 261